SCP
0 0 -0 -0 0 0 0 0 0 0 0 0 0 -0 -0 -0 -0 -0 0 0 -0 -0 -0 -0 -0 0 -0 0 0 0 0 0 0 -0 -0 -0 -0 -0 -0 -0 -0 -0 -0
-0 -0 0 0 0 0 0 0 0 0 0 0 0 0 -0 0 -0 -0 0 -0 -0 -0 -0 0 -0 0 0 0 0 0 0 0 0 0 -0 0 0 -0 0 -0 -0 0 -0
0 0 0 0 -0 0 0 0 0 0 -0 -0 -0 0 -0 0 0 0 0 0 -0 -0 0 0 0 0 0 0 0 0 0 0 0 0 0 0 0 0 0 0 0 0 0
0 0 0 0 -0 0 0 0 0 -0 -0 -0 -0 -0 0 0 -0 -0 -0 -0 0 0 0 0 0 0 0 0 0 0 0 0 0 0 0 0 0 0 0 0 0 0 0
0 0 -0 -0 -0 0 0 0 -0 -0 0 0 0 0 -0 -0 -0 0 0 0 0 0 0 0 0 0 0 0 0 0 0 0 0 0 0 0 0 0 0 0 0 0 0
0 0 0 -0 -0 0 0 -0 -0 -0 -0 -0 -0 -0 0 -0 0 0 0 0 0 0 0 0 0 0 0 0 0 0 0 0 0 0 0 0 0 0 0 0 0 0 0
0 0 0 0 0 0 0 -0 -0 0 0 0 0 0 0 0 0 0 0 0 0 0 0 0 0 0 0 0 0 0 0 0 0 0 0 0 0 0 0 0 0 0 0
0 0 0 0 0 0 0 0 0 0 0 0 0 0 0 0 0 0 0 0 0 0 0 0 0 0 0 0 0 0 0 0 0 0 0 0 0 0 0 0 0 0 0
0 0 0 0 0 0 0 0 0 0 0 0 0 0 0 0 0 0 0 0 0 0 0 0 0 0 0 0 0 0 0 0 0 0 0 0 0 0 0 0 0 0 0
0 0 0 0 0 0 0 0 0 0 0 0 0 0 0 0 0 0 0 0 0 0 0 0 0 0 0 0 0 0 0 0 0 0 0 0 0 0 0 0 0 0 0
-0 -0 -0 0 0 0 0 0 0 0 0 0 0 0 0 0 0 0 0 0 0 0 0 0 0 0 0 0 0 0 0 0 0 0 0 0 0 0 0 0 0 0 0
-0 -0 -0 -0 -0 -0 0 0 0 0 0 0 0 0 0 0 0 0 0 0 0 0 0 0 0 0 0 0 0 0 0 0 0 0 0 0 0 0 0 0 0 0 0
-0 -0 -0 -0 -0 0 0 0 0 0 0 0 0 0 0 0 0 0 0 0 0 0 0 0 0 0 0 0 0 0 0 0 0 0 0 0 0 0 0 0 0 0 0
-0 -0 -0 -0 0 0 0 0 0 0 0 0 0 0 0 0 0 0 0 0 0 0 0 0 0 0 0 0 0 0 0 0 0 0 0 0 0 0 0 0 0 0 0
-0 -0 -0 0 0 0 0 0 0 0 0 0 0 0 0 0 0 0 0 0 0 0 0 0 0 0 0 0 0 0 0 0 0 0 0 0 0 0 0 0 0 0 0
0 0 0 0 0 0 0 0 0 0 0 0 0 0 0 0 0 0 0 0 0 0 0 0 0 0 0 0 0 0 0 0 0 0 0 0 0 0 0 0 0 0 0
0 0 0 0 0 0 0 0 0 0 0 0 0 0 0 0 0 0 0 0 0 0 0 0 0 0 0 0 0 0 0 0 0 0 0 0 0 0 0 0 0 0 0
0 0 0 0 0 0 0 0 0 0 0 0 0 0 0 0 0 0 0 0 0 0 0 0 0 0 0 0 0 0 0 0 0 0 0 0 0 0 0 0 0 0 0
0 0 0 0 0 0 0 0 0 0 0 0 0 0 0 -0 -0 0 0 0 0 0 0 0 0 0 0 0 0 0 0 0 0 0 0 0 0 0 0 0 0 0 0
0 0 0 0 0 0 0 0 0 0 0 0 0 0 0 0 0 0 0 0 0 0 0 0 0 0 0 0 0 0 0 0 0 0 0 0 0 0 0 0 0 0 0
0 0 0 0 0 0 0 0 0 0 0 0 0 0 0 0 0 0 0 0 0 0 0 0 0 0 0 0 0 0 0 0 0 0 0 0 0 0 0 0 0 0 0
0 0 0 0 0 0 0 0 0 0 0 0 0 0 0 0 0 0 0 0 0 0 0 0 0 0 0 0 0 0 0 0 0 0 0 0 0 0 0 0 0 0 0
0 0 0 0 0 0 0 0 0 0 0 0 0 0 0 0 0 0 0 0 0 0 0 0 0 0 0 0 0 0 0 0 0 0 0 0 0 0 0 0 0 0 0
0 0 0 0 0 0 0 0 0 0 0 0 0 0 0 0 0 0 0 0 0 0 0 0 0 0 0 0 0 0 0 0 0 0 0 0 0 0 0 0 0 0 0
0 0 0 0 0 0 0 0 0 0 0 0 0 0 0 0 0 0 0 0 0 0 0 0 0 0 0 0 0 0 0 0 0 0 0 0 0 0 0 0 0 0 0
0 0 0 0 0 0 0 0 0 0 0 0 0 0 0 0 0 0 0 0 0 0 0 0 0 0 0 0 0 0 0 0 0 0 0 0 0 0 0 0 0 0 0
Wind_Speed_500mb
20 9 4 6 7 8 11 12 14 12 25 21 14 22 21 21 18 13 21 28 26 23 18 25 26 22 21 13 15 15 16 16 18 20 22 25 27 15 10 10 14 20 17
21 12 3 4 7 9 11 12 14 23 22 18 21 13 17 13 19 17 18 32 24 19 21 18 24 16 13 16 15 10 12 11 18 21 23 25 26 27 27 12 7 12 14
20 12 7 6 7 9 9 13 16 18 14 16 17 11 16 13 7 15 23 19 15 14 10 15 15 12 9 12 9 10 11 12 18 24 30 25 20 23 27 21 17 15 15
14 13 8 6 7 6 9 13 14 14 13 16 13 12 11 16 15 3 14 19 13 22 21 13 15 13 11 12 13 13 14 15 19 26 27 22 16 22 28 33 20 18 19
17 13 9 7 7 6 9 12 14 14 13 12 12 14 16 11 13 19 18 10 15 15 10 9 5 8 9 8 10 15 19 21 25 25 20 23 29 32 30 23 20 19 23
15 12 9 8 7 7 10 12 13 13 15 16 16 14 11 12 14 20 14 13 9 8 10 5 8 6 9 10 12 15 24 23 26 21 20 22 24 28 25 18 24 25 25
12 10 8 7 6 8 11 12 12 14 17 19 20 16 11 12 16 18 16 16 19 11 11 10 9 7 10 12 11 14 22 25 25 21 20 22 21 22 23 24 30 35 33
12 8 7 7 8 9 11 12 13 16 19 20 20 19 18 14 14 19 16 14 21 22 12 8 7 9 12 11 12 17 20 23 24 24 21 19 15 19 23 31 32 33 27
15 9 6 7 8 9 11 13 15 18 20 21 22 22 22 21 17 16 18 12 15 22 16 14 17 18 18 16 18 20 24 26 26 26 24 20 16 17 23 30 34 33 33
11 11 8 7 8 10 11 14 16 18 20 22 22 22 22 21 20 18 17 16 19 21 23 19 17 18 19 21 24 27 29 28 27 28 25 23 19 14 24 27 26 31 32
14 14 10 8 9 11 12 15 17 19 19 20 21 22 24 25 26 23 20 17 18 20 22 22 20 16 19 24 27 30 28 26 27 27 28 26 27 18 16 28 28 37 39
19 16 11 9 10 13 14 16 17 18 18 19 22 24 26 27 27 27 26 24 22 20 22 28 29 29 32 29 29 32 31 29 27 26 28 28 26 21 25 20 22 33 36
17 17 13 12 12 14 15 16 16 16 17 20 22 24 24 25 27 29 30 30 30 27 25 24 26 28 29 34 35 33 30 29 29 32 33 31 30 26 25 33 35 26 33
19 17 13 13 12 15 15 14 13 12 14 18 21 24 26 28 28 30 34 35 32 28 26 25 25 27 31 37 37 35 34 35 36 37 37 37 35 35 33 30 34 40 42
19 18 15 14 13 12 11 9 7 8 12 17 20 24 26 28 30 31 34 35 34 32 31 30 31 31 32 35 37 39 39 40 42 44 44 44 45 43 44 44 42 39 38
19 18 17 13 10 8 6 3 2 8 14 15 17 20 24 28 31 33 34 36 39 35 32 33 33 33 34 37 40 43 46 47 46 47 47 48 46 46 46 47 50 51 47
23 20 13 9 8 9 8 6 8 9 11 13 20 23 25 28 31 33 33 35 36 34 33 33 35 36 39 43 46 45 47 48 49 51 50 50 50 47 46 49 52 54 55
26 19 17 14 13 14 15 13 14 14 14 17 19 22 23 27 30 33 34 36 31 30 33 33 37 38 40 44 49 50 52 53 54 55 55 52 48 47 40 44 44 44 48
24 24 24 22 20 19 18 18 16 15 15 16 17 21 26 35 35 34 30 28 25 29 30 33 37 42 46 50 55 60 59 61 59 53 50 46 43 43 50 48 45 51 50
29 22 28 27 23 21 18 16 17 14 15 17 18 22 28 27 25 22 23 26 29 29 31 33 39 40 45 53 61 65 67 61 52 44 39 60 57 47 54 50 49 49 54
37 27 27 27 23 19 18 20 20 17 20 18 18 22 20 24 21 21 24 25 28 30 32 36 42 46 52 54 67 76 74 65 47 35 85 55 68 59 52 53 57 61 58
46 36 29 27 24 21 22 25 20 20 18 16 11 19 24 24 23 23 23 25 28 29 31 35 41 50 53 55 58 59 40 65 29 90 55 81 60 54 63 63 63 63 66
43 38 32 29 25 27 29 27 21 21 19 19 18 18 18 18 18 20 23 26 29 33 36 38 40 44 51 53 49 37 26 27 91 44 93 59 32 81 73 76 72 72 69
44 40 35 32 30 31 31 27 25 23 21 22 14 12 11 14 17 20 23 25 27 31 34 39 43 46 50 55 54 48 48 56 39 76 84 56 86 78 84 77 76 69 75
43 39 36 35 33 29 24 22 21 19 17 12 8 7 11 14 16 18 20 24 29 34 38 43 46 48 51 58 59 60 59 55 54 54 84 124 109 75 82 78 79 81 74
42 40 40 36 30 25 19 15 13 12 10 7 5 7 7 9 13 18 24 30 35 40 45 50 55 57 60 63 64 64 63 61 62 52 63 88 98 120 97 77 82 85 91
Wind_Direction_500mb
165 198 286 9 20 39 43 44 67 69 60 39 80 72 50 52 56 38 31 60 45 49 73 75 53 55 76 57 47 49 29 18 11 10 12 12 8 358 12 41 45 39 25
159 199 204 59 38 46 55 52 69 81 70 56 35 99 66 62 47 46 55 67 53 56 75 78 64 60 64 23 18 35 19 5 1 353 352 347 350 354 339 346 338 5 356
162 176 151 100 65 60 63 66 73 81 92 88 62 79 68 43 102 37 65 63 51 40 62 69 64 29 18 349 26 27 4 356 339 344 342 342 355 7 350 357 331 325 317
166 161 132 89 60 64 73 78 78 73 91 105 83 64 99 55 34 44 49 55 48 81 59 68 63 50 4 7 26 2 345 346 340 345 360 13 8 348 337 337 339 334 309
164 147 114 81 65 65 81 80 72 65 67 81 88 95 98 68 42 85 68 62 36 97 78 88 92 26 353 352 16 0 349 341 347 353 6 5 5 10 11 25 23 348 338
158 136 104 72 60 80 85 82 75 67 63 59 63 89 100 82 55 84 54 31 19 40 51 48 31 335 347 5 15 346 330 336 343 355 352 359 6 16 18 11 351 342 339
165 140 99 76 74 85 86 82 73 64 58 54 51 53 47 46 49 88 56 30 13 42 46 40 51 41 13 3 346 331 335 349 344 345 343 352 8 7 352 335 331 341 342
182 149 106 76 81 94 97 88 77 67 61 56 52 47 43 42 31 33 61 23 4 33 63 34 17 10 11 359 339 345 340 340 347 351 339 344 354 358 339 334 325 339 353
153 147 117 90 95 107 101 89 77 67 61 56 52 49 45 42 34 27 32 38 18 14 33 16 2 5 357 341 334 331 330 332 332 336 335 326 326 347 336 322 325 335 328
155 151 134 108 105 110 100 88 77 71 67 61 57 54 51 46 43 36 25 12 1 1 2 355 355 351 347 339 332 330 325 319 320 324 326 325 315 317 344 324 321 323 331
180 167 148 123 117 116 106 93 86 78 72 67 61 56 52 47 41 36 28 17 4 355 356 355 358 357 350 346 339 334 330 329 328 329 328 327 325 293 316 348 319 321 324
184 172 156 136 123 119 110 102 91 79 66 60 57 51 47 42 36 31 24 17 9 360 359 358 356 358 350 346 342 343 342 339 337 336 334 331 327 311 281 301 336 322 313
183 178 163 153 130 122 118 107 95 79 68 60 51 41 34 28 22 17 13 10 11 7 2 359 355 358 349 343 345 342 340 338 334 331 331 330 323 317 291 282 282 293 329
188 178 172 158 138 130 121 107 94 76 60 47 38 25 19 13 8 6 5 2 359 359 358 353 349 345 344 344 344 342 337 334 331 328 327 327 321 315 310 306 298 291 279
192 184 170 162 153 144 131 115 99 53 33 19 9 3 356 352 355 358 353 349 347 348 351 350 348 343 342 343 341 338 336 333 334 331 328 324 320 315 311 309 304 300 296
197 184 189 180 179 176 168 149 49 14 16 349 333 334 335 336 337 336 338 340 338 337 340 341 341 340 340 336 335 337 340 337 332 330 327 328 327 320 309 303 301 299 296
191 190 188 194 211 223 233 261 292 302 301 319 323 325 326 327 325 326 328 329 330 330 331 336 332 336 337 333 334 328 323 323 319 317 316 317 317 316 315 308 299 298 294
206 210 211 208 207 229 238 254 272 287 302 310 316 321 326 322 320 317 319 320 325 329 331 336 339 336 332 327 322 320 318 314 313 310 308 310 309 311 315 317 309 306 298
220 226 223 231 228 236 239 251 273 291 300 308 314 314 318 315 312 310 308 314 332 338 344 336 334 329 329 327 322 320 319 317 315 313 315 314 313 306 311 311 305 304 305
225 236 222 229 231 239 246 265 277 283 292 300 302 308 311 312 321 329 342 342 344 340 338 332 327 328 327 326 325 326 326 332 334 327 329 322 317 313 313 309 307 304 301
226 229 221 230 235 238 248 258 261 267 280 282 290 297 295 312 313 324 331 332 333 335 334 331 327 329 332 333 331 331 333 336 337 327 322 321 323 319 312 314 311 307 303
222 220 224 222 223 238 249 260 249 256 263 265 269 277 291 307 317 325 335 336 335 335 334 332 330 329 331 335 333 335 331 334 329 319 322 323 322 320 317 312 310 306 304
214 217 226 225 233 241 248 251 238 242 244 258 266 283 301 314 327 335 336 337 338 337 338 336 334 330 326 332 329 324 324 305 319 323 319 318 305 314 312 310 306 306 303
209 212 221 232 241 243 247 244 238 236 241 260 267 284 310 328 328 333 340 343 343 342 340 339 338 334 328 326 323 319 305 302 307 314 312 301 308 306 314 313 306 302 299
206 214 224 230 233 238 233 232 235 236 244 258 264 298 318 324 339 345 347 343 343 341 338 336 331 327 325 320 318 316 309 304 298 281 293 310 311 306 306 306 304 304 302
204 211 217 225 223 215 212 215 224 235 235 238 283 300 324 346 347 343 339 339 337 334 331 330 327 324 320 315 313 312 309 305 300 287 280 292 301 310 309 306 304 307 314
Wind_Speed_850mb
20 9 4 6 7 8 11 12 14 12 25 21 14 22 21 21 18 13 21 28 26 23 18 25 26 22 21 13 15 15 16 16 18 20 22 25 27 15 10 10 14 20 17
21 12 3 4 7 9 11 12 14 23 22 18 21 13 17 13 19 17 18 32 24 19 21 18 24 16 13 16 15 10 12 11 18 21 23 25 26 27 27 12 7 12 14
20 12 7 6 7 9 9 13 16 18 14 16 17 11 16 13 7 15 23 19 15 14 10 15 15 12 9 12 9 10 11 12 18 24 30 25 20 23 27 21 17 15 15
14 13 8 6 7 6 9 13 14 14 13 16 13 12 11 16 15 3 14 19 13 22 21 13 15 13 11 12 13 13 14 15 19 26 27 22 16 22 28 33 20 18 19
17 13 9 7 7 6 9 12 14 14 13 12 12 14 16 11 13 19 18 10 15 15 10 9 5 8 9 8 10 15 19 21 25 25 20 23 29 32 30 23 20 19 23
15 12 9 8 7 7 10 12 13 13 15 16 16 14 11 12 14 20 14 13 9 8 10 5 8 6 9 10 12 15 24 23 26 21 20 22 24 28 25 18 24 25 25
12 10 8 7 6 8 11 12 12 14 17 19 20 16 11 12 16 18 16 16 19 11 11 10 9 7 10 12 11 14 22 25 25 21 20 22 21 22 23 24 30 35 33
12 8 7 7 8 9 11 12 13 16 19 20 20 19 18 14 14 19 16 14 21 22 12 8 7 9 12 11 12 17 20 23 24 24 21 19 15 19 23 31 32 33 27
15 9 6 7 8 9 11 13 15 18 20 21 22 22 22 21 17 16 18 12 15 22 16 14 17 18 18 16 18 20 24 26 26 26 24 20 16 17 23 30 34 33 33
11 11 8 7 8 10 11 14 16 18 20 22 22 22 22 21 20 18 17 16 19 21 23 19 17 18 19 21 24 27 29 28 27 28 25 23 19 14 24 27 26 31 32
14 14 10 8 9 11 12 15 17 19 19 20 21 22 24 25 26 23 20 17 18 20 22 22 20 16 19 24 27 30 28 26 27 27 28 26 27 18 16 28 28 37 39
19 16 11 9 10 13 14 16 17 18 18 19 22 24 26 27 27 27 26 24 22 20 22 28 29 29 32 29 29 32 31 29 27 26 28 28 26 21 25 20 22 33 36
17 17 13 12 12 14 15 16 16 16 17 20 22 24 24 25 27 29 30 30 30 27 25 24 26 28 29 34 35 33 30 29 29 32 33 31 30 26 25 33 35 26 33
19 17 13 13 12 15 15 14 13 12 14 18 21 24 26 28 28 30 34 35 32 28 26 25 25 27 31 37 37 35 34 35 36 37 37 37 35 35 33 30 34 40 42
19 18 15 14 13 12 11 9 7 8 12 17 20 24 26 28 30 31 34 35 34 32 31 30 31 31 32 35 37 39 39 40 42 44 44 44 45 43 44 44 42 39 38
19 18 17 13 10 8 6 3 2 8 14 15 17 20 24 28 31 33 34 36 39 35 32 33 33 33 34 37 40 43 46 47 46 47 47 48 46 46 46 47 50 51 47
23 20 13 9 8 9 8 6 8 9 11 13 20 23 25 28 31 33 33 35 36 34 33 33 35 36 39 43 46 45 47 48 49 51 50 50 50 47 46 49 52 54 55
26 19 17 14 13 14 15 13 14 14 14 17 19 22 23 27 30 33 34 36 31 30 33 33 37 38 40 44 49 50 52 53 54 55 55 52 48 47 40 44 44 44 48
24 24 24 22 20 19 18 18 16 15 15 16 17 21 26 35 35 34 30 28 25 29 30 33 37 42 46 50 55 60 59 61 59 53 50 46 43 43 50 48 45 51 50
29 22 28 27 23 21 18 16 17 14 15 17 18 22 28 27 25 22 23 26 29 29 31 33 39 40 45 53 61 65 67 61 52 44 39 60 57 47 54 50 49 49 54
37 27 27 27 23 19 18 20 20 17 20 18 18 22 20 24 21 21 24 25 28 30 32 36 42 46 52 54 67 76 74 65 47 35 85 55 68 59 52 53 57 61 58
46 36 29 27 24 21 22 25 20 20 18 16 11 19 24 24 23 23 23 25 28 29 31 35 41 50 53 55 58 59 40 65 29 90 55 81 60 54 63 63 63 63 66
43 38 32 29 25 27 29 27 21 21 19 19 18 18 18 18 18 20 23 26 29 33 36 38 40 44 51 53 49 37 26 27 91 44 93 59 32 81 73 76 72 72 69
44 40 35 32 30 31 31 27 25 23 21 22 14 12 11 14 17 20 23 25 27 31 34 39 43 46 50 55 54 48 48 56 39 76 84 56 86 78 84 77 76 69 75
43 39 36 35 33 29 24 22 21 19 17 12 8 7 11 14 16 18 20 24 29 34 38 43 46 48 51 58 59 60 59 55 54 54 84 124 109 75 82 78 79 81 74
42 40 40 36 30 25 19 15 13 12 10 7 5 7 7 9 13 18 24 30 35 40 45 50 55 57 60 63 64 64 63 61 62 52 63 88 98 120 97 77 82 85 91
Wind_Direction_850mb
165 198 286 9 20 39 43 44 67 69 60 39 80 72 50 52 56 38 31 60 45 49 73 75 53 55 76 57 47 49 29 18 11 10 12 12 8 358 12 41 45 39 25
159 199 204 59 38 46 55 52 69 81 70 56 35 99 66 62 47 46 55 67 53 56 75 78 64 60 64 23 18 35 19 5 1 353 352 347 350 354 339 346 338 5 356
162 176 151 100 65 60 63 66 73 81 92 88 62 79 68 43 102 37 65 63 51 40 62 69 64 29 18 349 26 27 4 356 339 344 342 342 355 7 350 357 331 325 317
166 161 132 89 60 64 73 78 78 73 91 105 83 64 99 55 34 44 49 55 48 81 59 68 63 50 4 7 26 2 345 346 340 345 360 13 8 348 337 337 339 334 309
164 147 114 81 65 65 81 80 72 65 67 81 88 95 98 68 42 85 68 62 36 97 78 88 92 26 353 352 16 0 349 341 347 353 6 5 5 10 11 25 23 348 338
158 136 104 72 60 80 85 82 75 67 63 59 63 89 100 82 55 84 54 31 19 40 51 48 31 335 347 5 15 346 330 336 343 355 352 359 6 16 18 11 351 342 339
165 140 99 76 74 85 86 82 73 64 58 54 51 53 47 46 49 88 56 30 13 42 46 40 51 41 13 3 346 331 335 349 344 345 343 352 8 7 352 335 331 341 342
182 149 106 76 81 94 97 88 77 67 61 56 52 47 43 42 31 33 61 23 4 33 63 34 17 10 11 359 339 345 340 340 347 351 339 344 354 358 339 334 325 339 353
153 147 117 90 95 107 101 89 77 67 61 56 52 49 45 42 34 27 32 38 18 14 33 16 2 5 357 341 334 331 330 332 332 336 335 326 326 347 336 322 325 335 328
155 151 134 108 105 110 100 88 77 71 67 61 57 54 51 46 43 36 25 12 1 1 2 355 355 351 347 339 332 330 325 319 320 324 326 325 315 317 344 324 321 323 331
180 167 148 123 117 116 106 93 86 78 72 67 61 56 52 47 41 36 28 17 4 355 356 355 358 357 350 346 339 334 330 329 328 329 328 327 325 293 316 348 319 321 324
184 172 156 136 123 119 110 102 91 79 66 60 57 51 47 42 36 31 24 17 9 360 359 358 356 358 350 346 342 343 342 339 337 336 334 331 327 311 281 301 336 322 313
183 178 163 153 130 122 118 107 95 79 68 60 51 41 34 28 22 17 13 10 11 7 2 359 355 358 349 343 345 342 340 338 334 331 331 330 323 317 291 282 282 293 329
188 178 172 158 138 130 121 107 94 76 60 47 38 25 19 13 8 6 5 2 359 359 358 353 349 345 344 344 344 342 337 334 331 328 327 327 321 315 310 306 298 291 279
192 184 170 162 153 144 131 115 99 53 33 19 9 3 356 352 355 358 353 349 347 348 351 350 348 343 342 343 341 338 336 333 334 331 328 324 320 315 311 309 304 300 296
197 184 189 180 179 176 168 149 49 14 16 349 333 334 335 336 337 336 338 340 338 337 340 341 341 340 340 336 335 337 340 337 332 330 327 328 327 320 309 303 301 299 296
191 190 188 194 211 223 233 261 292 302 301 319 323 325 326 327 325 326 328 329 330 330 331 336 332 336 337 333 334 328 323 323 319 317 316 317 317 316 315 308 299 298 294
206 210 211 208 207 229 238 254 272 287 302 310 316 321 326 322 320 317 319 320 325 329 331 336 339 336 332 327 322 320 318 314 313 310 308 310 309 311 315 317 309 306 298
220 226 223 231 228 236 239 251 273 291 300 308 314 314 318 315 312 310 308 314 332 338 344 336 334 329 329 327 322 320 319 317 315 313 315 314 313 306 311 311 305 304 305
225 236 222 229 231 239 246 265 277 283 292 300 302 308 311 312 321 329 342 342 344 340 338 332 327 328 327 326 325 326 326 332 334 327 329 322 317 313 313 309 307 304 301
226 229 221 230 235 238 248 258 261 267 280 282 290 297 295 312 313 324 331 332 333 335 334 331 327 329 332 333 331 331 333 336 337 327 322 321 323 319 312 314 311 307 303
222 220 224 222 223 238 249 260 249 256 263 265 269 277 291 307 317 325 335 336 335 335 334 332 330 329 331 335 333 335 331 334 329 319 322 323 322 320 317 312 310 306 304
214 217 226 225 233 241 248 251 238 242 244 258 266 283 301 314 327 335 336 337 338 337 338 336 334 330 326 332 329 324 324 305 319 323 319 318 305 314 312 310 306 306 303
209 212 221 232 241 243 247 244 238 236 241 260 267 284 310 328 328 333 340 343 343 342 340 339 338 334 328 326 323 319 305 302 307 314 312 301 308 306 314 313 306 302 299
206 214 224 230 233 238 233 232 235 236 244 258 264 298 318 324 339 345 347 343 343 341 338 336 331 327 325 320 318 316 309 304 298 281 293 310 311 306 306 306 304 304 302
204 211 217 225 223 215 212 215 224 235 235 238 283 300 324 346 347 343 339 339 337 334 331 330 327 324 320 315 313 312 309 305 300 287 280 292 301 310 309 306 304 307 314